Theta_e
350 350 349 349 348 347 347 348 347 346 345 347 346 346 346 346 345 345 344 342 343 346 347 347 347 347 348 347 345 345 346 346 344 341 338 337 338 338 339 339 339 339 339 339 339 338 337 335 334 333 334 334 335 336 335 334 333 333 333 333 333 333 333 333 333 334 334 333 333 333 333 333 334 335 337 339 340 340 340 340 341 340 340 340 339
351 350 348 348 347 346 347 347 347 346 346 347 345 345 346 346 347 347 347 345 345 346 346 347 346 346 348 348 347 345 346 348 347 344 339 336 336 337 338 339 339 339 339 339 339 340 338 337 335 334 333 332 332 332 332 333 332 333 334 333 333 332 332 332 332 332 332 331 331 333 334 336 337 339 340 340 340 340 340 340 340 340 340 339 337
350 348 346 346 345 345 345 344 345 346 346 346 345 346 345 345 347 346 347 346 346 345 345 346 346 346 348 348 348 346 347 348 347 346 342 339 337 336 337 338 338 338 338 339 340 339 339 337 337 336 335 334 333 333 333 334 334 335 336 336 335 335 334 335 334 334 334 334 335 336 338 339 339 339 340 339 339 339 338 338 337 338 337 333 330
351 350 349 348 346 344 344 342 343 343 343 345 345 346 345 344 346 345 344 345 345 345 344 344 345 346 347 346 346 346 347 347 347 347 347 344 340 337 336 335 335 335 336 338 339 339 339 337 337 338 338 338 338 337 337 337 337 337 338 338 338 339 339 338 338 338 338 338 338 339 340 340 339 339 339 337 337 337 336 334 332 330 328 324 321
349 349 349 351 350 348 349 348 346 342 341 344 344 343 344 344 344 344 344 345 345 345 345 345 345 346 347 347 346 346 347 347 347 348 348 347 345 341 338 336 335 334 334 336 337 338 338 337 338 339 339 340 340 340 340 339 339 339 339 339 339 340 340 340 340 340 340 339 339 340 339 339 338 338 337 336 336 334 331 327 325 323 321 319 317
346 348 348 349 351 350 349 350 350 347 346 347 346 344 343 343 345 346 345 346 346 345 346 346 346 347 348 348 347 347 348 347 347 348 348 348 347 345 343 341 339 337 335 335 335 337 337 338 338 338 339 339 339 340 340 340 340 340 340 340 340 340 340 340 340 339 339 339 339 339 338 338 338 338 336 334 333 330 325 322 320 319 317 316 315
347 350 348 348 349 348 348 348 348 350 350 350 350 349 347 346 347 347 346 345 346 346 347 346 347 348 348 347 347 347 347 347 348 349 349 348 348 347 346 345 343 341 340 338 336 335 337 339 339 339 339 339 339 339 339 340 340 340 340 340 340 340 340 340 340 339 339 339 339 338 339 338 339 338 336 332 328 325 321 319 317 316 315 314 314
346 348 349 349 349 348 346 347 346 348 350 349 350 350 349 349 349 347 347 347 346 347 347 346 347 348 348 348 348 348 347 347 348 348 349 349 349 348 347 345 343 342 341 340 339 336 335 337 338 338 339 338 338 338 338 339 339 339 339 339 339 340 340 340 339 340 340 339 339 339 340 340 339 338 334 328 323 321 318 317 315 314 314 315 315
347 347 348 349 351 349 346 345 346 349 349 349 350 349 347 347 347 348 349 348 346 347 346 346 347 348 348 348 347 348 349 349 348 348 349 350 350 350 348 343 338 340 341 341 341 339 336 337 339 339 339 337 336 336 337 338 337 338 338 338 338 338 337 338 339 339 339 339 339 339 339 339 337 335 330 324 320 318 316 315 315 315 315 316 317
348 347 346 350 351 348 347 345 346 348 349 348 350 349 347 347 345 346 348 347 346 346 346 345 346 347 347 348 348 349 349 349 350 349 349 350 350 350 350 346 341 345 346 345 344 343 341 341 340 341 340 337 334 334 334 334 334 335 335 335 335 335 335 336 337 337 337 337 337 337 337 336 334 330 325 320 317 316 315 315 316 317 317 318 318
348 347 346 349 348 346 346 345 345 348 349 347 348 347 347 348 345 344 346 347 345 345 345 345 346 346 346 347 347 350 349 349 351 351 350 350 350 349 351 350 349 349 348 347 348 347 344 342 341 342 341 338 335 334 333 332 331 332 334 334 334 334 333 334 335 335 335 335 335 334 333 332 329 325 321 318 316 316 317 318 318 319 319 319 319
348 347 346 346 347 347 345 344 344 346 347 346 346 345 346 348 345 343 345 346 345 344 345 345 345 345 346 347 347 349 349 350 351 350 351 350 349 351 350 350 349 350 349 348 348 346 343 342 341 340 339 338 336 335 334 333 333 332 331 331 333 335 333 332 332 332 332 331 330 329 329 327 324 321 318 317 317 318 319 319 319 320 319 319 320
348 348 346 345 348 349 345 344 344 343 344 344 344 345 346 344 343 344 346 347 345 343 344 344 345 345 346 347 348 348 348 350 351 349 351 350 350 351 351 351 350 350 350 348 348 347 346 345 341 339 339 339 338 337 335 335 334 331 327 325 328 333 333 332 332 330 329 327 325 325 325 323 320 318 318 318 318 320 319 320 319 319 320 319 319
348 348 347 346 346 345 343 342 340 341 343 343 343 345 345 344 345 345 345 347 346 344 344 345 346 345 346 348 348 349 348 350 350 350 351 350 350 350 349 350 350 350 350 348 348 349 350 347 343 344 343 338 338 338 336 335 334 331 326 322 323 329 333 332 329 327 324 323 321 320 320 320 319 318 318 319 320 320 320 320 319 319 319 319 319
346 347 348 347 346 344 343 342 340 340 341 343 344 344 344 345 346 345 343 346 346 344 344 347 348 345 345 348 347 348 348 348 349 350 350 349 349 349 348 349 348 349 349 348 349 349 349 348 346 346 342 337 340 340 334 334 335 331 326 321 320 323 327 326 323 321 320 320 318 318 319 319 318 319 319 320 320 320 320 319 319 319 318 318 319
344 345 347 347 347 347 345 343 341 340 341 343 346 345 345 345 346 347 346 347 347 345 344 346 347 346 347 347 347 347 348 347 348 348 349 348 347 347 347 348 348 348 348 348 349 348 348 348 346 343 337 336 341 341 339 339 338 332 325 321 319 320 320 319 318 319 319 318 318 318 318 319 319 319 320 320 320 320 319 319 319 319 318 318 318
344 345 346 346 346 347 346 344 343 341 342 345 346 346 346 345 347 350 349 348 348 346 346 346 345 347 348 347 347 348 348 347 347 348 348 347 348 347 346 348 349 347 347 348 347 347 349 347 344 339 335 334 336 339 344 345 338 330 326 323 321 320 320 319 320 319 319 319 319 319 319 319 319 319 320 320 320 320 320 319 320 320 320 319 318
344 344 345 346 346 346 347 347 346 343 343 344 346 347 348 348 349 350 349 349 348 346 347 345 343 345 349 348 348 349 348 348 348 349 349 347 347 347 347 348 349 346 346 348 347 348 347 346 346 344 339 339 337 337 342 342 335 329 328 326 325 324 323 323 322 321 320 320 320 319 319 319 319 319 319 320 320 320 320 321 321 321 321 321 321
343 344 344 345 346 347 346 345 346 346 346 344 347 349 351 351 350 349 348 345 347 348 347 345 344 347 349 349 349 349 350 350 350 350 349 348 348 348 347 347 347 347 347 349 348 346 345 345 347 345 344 344 341 336 337 339 335 331 329 328 328 328 327 326 326 325 324 323 322 321 320 319 319 319 319 320 321 321 321 322 322 322 323 323 323
341 344 344 345 346 347 345 344 345 347 347 345 348 350 350 351 350 349 347 343 344 348 348 347 347 348 348 349 349 349 350 350 351 352 350 348 347 346 344 344 345 346 346 346 346 344 344 345 345 345 345 344 341 338 337 337 336 331 329 329 329 329 328 328 328 327 327 327 326 325 323 322 321 320 320 320 320 321 321 322 322 322 322 323 323
340 343 344 344 345 345 346 345 344 345 346 347 351 352 352 351 350 349 347 344 341 343 346 347 348 348 345 347 350 349 349 350 349 351 350 348 347 345 344 344 343 342 342 343 344 343 345 346 345 345 346 345 343 341 339 337 335 330 329 329 328 329 329 329 328 329 329 328 328 327 327 327 325 323 323 322 321 321 321 321 322 322 322 322 323
338 342 343 344 344 344 344 344 344 344 348 351 354 353 352 349 348 349 349 347 341 338 342 345 348 350 346 343 348 350 349 350 349 348 348 348 348 347 345 345 344 341 342 342 341 342 343 344 344 345 347 347 346 343 338 335 334 331 330 329 329 329 329 328 328 328 328 328 328 329 328 328 328 327 326 325 324 324 323 323 322 322 322 322 322
333 339 342 342 344 344 343 343 343 343 346 351 354 354 352 349 347 349 350 349 346 341 341 345 345 346 347 343 346 349 347 347 348 346 347 349 348 347 344 343 344 342 342 342 342 343 343 343 344 345 346 347 347 346 339 332 330 329 329 329 329 329 328 329 329 329 329 329 329 328 329 328 328 328 328 327 327 327 326 326 326 325 324 324 323
333 337 340 342 342 343 342 342 342 341 344 347 350 353 353 353 351 349 349 350 348 344 343 349 348 345 348 347 345 348 346 344 347 344 344 345 347 347 343 341 345 343 341 342 343 345 344 343 345 346 344 342 343 344 337 329 328 328 327 327 327 328 328 328 328 328 328 328 329 328 328 329 328 328 329 328 328 328 327 327 327 327 327 326 325
334 335 337 341 342 341 342 342 341 342 343 343 346 350 353 356 355 351 350 349 348 345 343 350 354 349 349 349 346 346 344 343 345 343 342 342 345 348 344 342 347 345 341 340 340 342 342 340 342 345 343 336 331 333 332 330 331 329 328 328 328 327 328 327 326 327 327 327 328 328 328 328 328 328 328 328 328 328 328 328 328 328 328 327 327
331 333 337 343 345 343 342 342 341 341 342 341 343 346 348 353 354 350 350 350 346 344 343 350 355 350 347 348 347 346 344 342 343 343 344 344 345 348 341 338 345 347 344 343 343 343 343 341 341 341 340 335 331 334 336 335 333 332 331 331 330 329 329 328 328 328 328 328 327 327 327 327 328 328 327 327 327 327 327 328 329 329 329 330 329
327 331 336 343 347 345 342 342 342 341 341 341 342 343 344 346 346 345 348 350 346 343 342 349 355 353 346 345 346 347 346 344 343 343 343 344 345 343 335 331 338 346 348 348 347 347 345 344 343 342 341 339 340 344 343 337 332 332 333 332 332 332 331 330 331 331 331 330 330 330 330 330 330 330 330 330 329 330 329 329 330 330 331 331 332
329 331 334 340 346 347 342 341 342 342 340 341 341 342 342 343 343 342 344 347 346 344 342 345 354 356 351 345 342 344 347 347 347 346 344 342 340 334 330 330 335 341 344 346 347 349 349 346 345 345 344 344 346 347 343 337 334 334 334 333 332 332 332 332 332 332 332 332 332 332 332 332 332 333 333 333 333 333 332 332 332 332 332 332 332
335 338 338 339 345 346 342 340 341 342 341 340 340 341 340 341 342 342 342 343 343 344 343 342 347 355 355 349 341 340 341 341 342 343 340 338 335 331 331 333 335 337 340 343 344 344 346 346 345 345 345 346 347 344 341 340 340 340 337 335 333 331 332 332 332 331 332 333 333 333 334 334 334 334 334 335 335 335 335 335 335 335 335 334 334
338 344 345 342 344 344 341 338 339 341 341 340 340 341 340 340 341 341 342 342 342 342 343 342 343 350 356 355 351 348 344 340 343 346 345 342 338 336 336 337 338 338 337 338 337 335 339 342 345 348 349 348 347 344 343 345 347 347 344 339 333 330 331 332 332 332 332 333 334 334 335 336 336 337 337 337 338 338 338 337 338 337 338 337 337
338 345 348 347 346 343 340 338 338 340 341 341 340 340 340 340 340 340 340 342 342 341 342 343 342 345 351 355 356 355 354 353 354 354 355 353 345 339 339 339 339 339 337 337 337 335 335 335 337 341 345 346 347 348 349 349 348 348 345 340 335 334 335 333 333 333 332 333 335 336 337 340 343 345 345 345 345 345 345 345 344 343 343 342 341
339 343 348 351 350 344 340 339 338 339 340 340 340 340 340 340 340 340 340 341 342 342 341 341 342 344 347 350 353 355 354 353 351 349 353 355 349 341 340 340 338 338 338 338 338 335 334 334 333 333 335 336 340 344 345 343 342 343 342 341 340 339 337 335 334 334 334 333 333 335 338 342 347 350 352 353 353 353 353 352 352 351 350 349 348
341 343 345 349 350 346 341 339 339 338 338 338 340 339 339 340 340 340 341 340 340 340 341 340 342 345 347 345 345 347 347 345 343 342 343 347 349 347 345 345 344 341 341 342 342 339 336 335 334 332 331 332 333 335 337 338 340 342 342 342 341 339 340 341 341 341 341 340 337 337 340 346 351 353 354 354 354 355 354 354 353 353 353 353 352
344 344 343 345 348 346 342 341 340 340 340 337 338 339 337 339 339 339 341 341 339 338 339 340 341 344 346 344 340 340 341 341 341 341 339 343 351 354 353 353 352 350 350 351 350 347 342 336 334 332 332 332 333 333 336 337 339 340 341 340 339 341 344 345 345 347 348 349 348 347 349 352 355 356 355 354 353 353 353 352 351 350 349 349 348
348 346 344 343 345 345 343 342 342 343 343 339 338 338 336 336 338 337 339 341 339 337 337 339 340 340 341 341 338 339 340 340 339 339 338 341 348 353 354 356 357 357 358 358 357 354 348 340 335 334 334 333 333 333 334 335 337 339 340 341 340 342 344 345 348 350 353 355 356 355 356 357 358 357 356 354 354 355 353 350 349 348 347 346 346
350 347 345 344 344 343 343 342 341 342 343 342 339 339 337 335 336 337 338 338 338 337 336 338 338 338 338 338 338 337 338 341 341 339 338 337 339 343 346 350 351 352 353 355 353 351 346 339 335 333 333 333 332 334 336 338 339 342 345 345 345 345 347 349 352 355 357 358 358 359 360 359 358 357 356 355 357 356 351 347 345 345 344 345 346
352 350 347 346 345 344 343 343 341 340 342 341 340 338 337 336 334 334 336 337 337 337 337 337 337 337 336 336 335 335 337 341 343 342 340 337 336 338 341 342 342 343 342 340 339 339 338 336 335 333 333 333 333 336 340 343 344 346 347 349 349 350 353 354 355 357 359 359 360 360 360 359 358 357 356 358 358 351 343 340 339 339 341 342 345
352 353 350 348 347 345 343 343 341 340 340 341 339 338 338 337 335 333 334 336 337 336 336 335 336 337 336 335 335 334 335 337 340 343 343 342 342 343 346 347 344 343 343 341 338 338 339 337 335 334 333 334 337 340 344 347 349 348 349 352 353 354 356 357 357 358 359 360 360 359 358 358 358 357 358 358 351 340 334 335 335 335 337 339 341
352 356 353 350 349 346 342 341 341 340 339 340 339 337 338 338 337 334 333 334 335 335 334 333 333 335 335 334 334 334 336 336 336 340 345 350 350 349 349 350 349 344 342 342 343 344 344 342 339 338 337 339 341 343 343 346 349 351 353 356 356 355 356 357 357 358 359 359 359 358 357 358 357 358 358 351 338 331 331 331 331 332 334 336 339
351 356 356 353 350 349 346 340 338 339 338 339 339 336 336 339 340 336 334 333 332 331 331 330 331 332 334 336 335 334 335 336 335 336 340 347 351 352 351 350 348 344 341 340 343 345 346 346 344 341 340 339 339 340 343 348 353 355 355 356 356 357 358 357 355 356 356 357 357 358 357 355 357 357 350 337 329 329 331 330 330 332 335 337 340
353 354 356 355 352 352 351 345 340 340 339 338 338 336 334 336 339 338 335 333 333 332 330 329 328 330 334 343 348 347 344 343 342 340 339 341 345 348 348 346 342 343 343 342 341 341 342 343 341 339 338 335 335 341 348 353 355 354 353 356 358 357 353 352 352 354 356 357 358 358 355 355 356 350 337 329 330 333 335 336 337 338 339 341 344
354 352 354 356 356 354 354 351 346 343 341 337 335 334 333 332 334 336 335 333 333 334 333 331 330 331 333 339 346 349 350 350 348 347 345 342 341 340 340 339 337 337 338 338 337 336 336 338 338 337 338 335 334 342 350 353 354 354 355 358 356 350 347 350 353 355 357 359 358 357 357 356 351 340 331 330 335 337 339 341 340 340 341 343 343
356 354 352 355 357 356 356 355 352 346 342 338 334 332 332 332 332 333 334 333 332 333 336 335 333 332 335 337 340 341 344 348 349 350 349 345 339 334 331 332 332 333 333 332 331 331 332 333 334 335 336 334 334 340 346 348 351 354 355 354 349 347 349 354 356 357 357 357 357 358 358 351 342 335 333 335 338 341 342 342 341 340 338 337 335
356 355 353 352 355 357 357 358 356 350 341 335 333 332 332 331 331 332 332 333 334 333 334 336 334 332 333 338 343 345 343 344 345 347 347 341 333 329 329 329 330 330 330 329 329 328 329 330 330 331 332 332 333 335 336 340 345 348 347 346 345 348 352 355 357 357 356 357 358 358 353 344 339 338 338 339 342 344 343 341 339 336 333 332 332
356 356 356 353 353 355 357 358 359 356 347 338 333 332 332 330 330 331 331 332 334 334 334 334 335 333 330 331 336 342 345 345 345 343 341 335 330 328 328 328 328 328 328 327 327 327 327 328 328 328 328 329 331 332 332 336 340 342 343 345 349 352 354 355 356 356 356 358 357 355 350 344 342 343 343 343 344 342 338 335 332 330 329 331 332
357 357 357 356 354 354 355 357 358 357 354 348 339 333 331 331 330 330 330 330 332 334 337 338 337 337 334 329 327 330 335 339 342 343 339 332 329 328 326 326 327 327 326 326 326 326 326 327 328 327 329 331 334 336 339 341 343 344 348 350 352 355 355 355 357 357 357 357 356 352 347 343 344 347 347 343 339 334 330 329 328 328 329 330 330
357 358 358 357 356 353 353 356 357 357 357 356 351 342 334 331 331 330 331 332 331 334 340 344 343 341 339 335 332 329 328 329 331 334 335 331 328 326 325 326 325 325 326 326 326 326 326 328 329 331 335 340 343 347 349 350 351 351 353 354 355 356 356 357 358 357 357 356 353 348 344 342 345 348 345 338 332 329 328 328 328 329 328 328 329
358 359 358 358 358 355 353 353 355 357 358 358 357 352 343 336 335 335 333 332 332 335 341 347 349 349 346 342 338 333 329 327 326 327 329 330 331 329 327 326 325 325 325 325 325 325 326 330 333 335 339 345 352 355 355 356 355 356 357 358 357 357 358 359 358 356 356 353 348 343 343 344 343 341 337 332 329 328 328 328 328 328 329 330 331
360 361 360 359 358 357 355 352 352 354 357 357 358 357 352 347 344 342 338 335 333 332 335 341 347 351 351 347 341 336 330 327 326 326 327 329 330 330 329 328 328 329 329 328 332 333 331 332 334 337 343 352 357 358 358 358 358 359 360 359 359 359 360 359 357 354 352 350 345 343 344 342 337 332 331 329 329 328 328 328 327 328 330 330 330
361 362 362 360 359 358 356 354 352 351 352 354 355 356 355 354 352 349 344 341 338 333 331 332 336 342 345 343 339 336 332 328 326 326 327 328 329 328 328 330 332 333 332 333 336 337 335 337 342 346 351 356 358 359 359 359 359 360 361 360 359 360 359 356 353 351 350 349 346 343 340 337 332 329 329 328 328 327 328 328 327 328 329 329 329
359 362 363 362 361 359 358 357 356 352 349 350 351 351 352 352 352 351 348 346 343 339 335 333 331 332 334 334 333 333 330 328 327 327 327 329 328 328 330 332 333 331 331 334 337 338 341 345 350 353 356 357 358 359 359 359 360 361 360 359 359 360 358 354 351 351 352 350 344 338 335 333 330 328 328 328 329 328 327 328 328 327 328 328 329
Wind_Speed
10 10 8 8 8 8 8 8 7 6 6 7 6 6 6 8 10 10 10 10 12 12 12 12 12 12 10 9 10 10 9 8 7 7 7 8 8 8 8 7 7 7 7 7 7 7 7 8 8 8 7 7 6 6 6 6 6 6 6 5 4 4 3 3 3 3 3 4 5 5 6 6 6 7 7 7 7 8 8 8 9 9 9 9 9
9 9 8 8 9 9 9 9 8 6 7 6 6 7 8 9 11 10 10 10 11 11 12 11 12 14 13 10 9 9 9 8 6 7 7 7 7 8 8 8 7 6 6 6 6 6 6 6 7 7 7 6 6 6 6 6 6 6 6 5 5 4 4 3 4 4 4 5 6 6 6 6 6 7 7 7 8 8 8 9 9 9 8 8 8
10 9 8 8 10 9 8 8 7 7 8 7 7 8 9 8 10 11 10 10 10 9 11 10 10 14 14 12 8 6 7 8 6 6 6 7 6 7 8 8 7 7 6 6 6 5 5 6 6 6 6 6 6 6 6 6 6 6 5 5 5 5 5 4 5 5 5 5 5 5 5 6 7 7 8 8 8 8 9 9 9 8 7 7 8
10 9 8 8 10 9 9 8 8 9 9 8 9 9 9 9 10 11 10 10 10 9 10 10 10 12 12 11 10 6 5 6 6 5 5 5 5 5 6 7 7 7 6 6 6 5 5 5 5 5 6 6 6 5 5 5 5 5 5 4 4 4 4 4 4 4 4 4 5 5 6 6 7 7 8 8 8 8 8 8 8 7 7 8 8
8 9 8 9 9 8 10 10 9 11 10 8 10 11 11 12 11 10 10 11 10 10 10 11 12 13 11 9 9 8 7 7 6 5 5 4 5 5 5 6 6 6 6 6 6 6 5 5 5 4 4 4 4 4 4 4 4 3 4 3 3 3 2 3 3 3 3 4 4 5 6 6 6 7 7 7 7 7 7 7 7 7 8 8 7
8 8 8 10 9 8 9 9 9 10 10 9 11 12 12 12 9 8 10 12 11 11 11 12 13 12 10 6 6 8 9 9 5 3 5 4 4 4 4 5 6 6 6 6 5 5 5 4 4 3 3 3 2 2 2 2 2 2 1 1 1 1 2 2 3 3 4 4 4 4 5 5 6 6 7 7 6 6 7 7 7 7 7 7 7
9 7 7 9 9 8 8 7 8 9 8 9 11 12 12 11 8 7 9 11 10 9 9 10 10 9 9 7 4 5 6 7 6 4 5 4 3 4 3 4 4 5 5 5 5 5 4 4 3 3 3 3 3 3 3 2 2 2 2 1 1 2 2 3 3 3 3 4 4 4 4 4 5 6 6 6 6 6 6 6 7 7 7 7 6
8 7 7 8 7 7 9 8 9 10 10 10 10 11 11 11 11 9 8 9 9 8 7 8 7 5 8 8 5 6 5 4 7 7 6 5 4 3 2 3 4 4 4 4 5 4 4 4 3 3 3 3 3 3 3 3 3 3 4 3 3 2 2 3 3 3 3 3 4 3 4 4 5 5 6 6 6 6 6 6 6 6 6 6 6
7 7 7 7 6 6 8 8 9 11 11 10 10 10 11 11 12 12 9 7 8 8 6 8 8 4 7 8 5 7 5 3 7 7 6 6 5 4 2 2 4 4 3 3 4 4 4 4 4 4 4 4 4 4 3 3 3 3 3 3 3 2 2 2 2 2 3 3 3 3 3 4 5 5 5 5 5 5 5 5 5 5 5 5 5
8 6 6 6 5 6 7 8 9 9 10 10 10 8 9 11 11 13 12 9 7 7 5 6 7 5 6 6 5 6 5 4 6 6 6 8 7 5 3 1 3 4 4 3 3 3 2 3 4 3 4 4 4 4 3 3 2 2 2 2 2 2 2 2 2 2 2 2 3 3 3 4 4 4 4 5 5 5 5 5 5 5 5 4 4
7 5 6 5 6 6 6 7 9 9 9 9 9 8 9 10 10 12 13 11 9 8 7 6 6 7 6 5 5 6 4 4 5 4 6 7 6 6 4 1 2 2 3 1 2 1 1 2 2 2 3 3 4 4 4 3 2 2 1 2 2 2 2 2 2 2 2 3 3 3 3 4 4 4 4 4 4 4 4 4 4 4 4 4 4
6 5 5 5 6 6 5 7 9 8 8 8 8 8 9 9 8 10 12 11 9 8 7 7 6 7 6 4 4 5 4 4 4 4 5 5 5 6 4 2 3 3 2 1 2 2 2 2 2 2 3 3 3 4 4 4 3 3 2 2 2 2 3 3 2 2 2 3 4 3 3 4 4 4 3 3 3 3 3 4 4 4 4 4 4
6 5 4 4 5 5 5 6 7 7 7 8 8 8 8 8 8 10 12 10 7 7 7 7 7 6 6 4 3 4 4 5 5 5 5 4 4 5 4 2 2 4 4 3 3 1 2 2 3 3 4 3 3 4 5 5 4 4 4 4 3 3 3 3 3 3 3 4 4 4 4 4 3 3 2 2 2 2 3 3 4 4 4 4 4
6 5 4 4 5 5 5 5 7 7 8 8 7 7 8 9 8 9 12 10 7 8 7 7 5 5 6 5 3 4 3 3 5 6 5 4 4 4 5 3 1 1 1 1 2 4 2 5 4 1 2 3 3 4 5 4 5 6 6 5 3 3 3 3 3 4 4 4 4 3 3 3 2 2 2 2 2 2 3 3 4 4 4 5 5
5 5 4 2 3 5 4 4 5 6 8 8 7 8 8 9 8 8 11 9 6 6 7 8 5 4 6 5 4 4 3 3 4 6 5 4 5 4 4 5 3 1 2 4 3 3 4 4 2 2 3 4 3 5 5 4 6 7 7 6 3 3 3 3 4 4 4 4 4 3 3 3 3 3 2 2 2 3 3 4 4 4 4 5 5
5 5 4 3 2 4 3 3 4 5 7 9 8 8 7 8 9 9 11 9 5 5 5 6 6 5 4 5 4 5 5 5 5 6 5 4 5 5 4 6 4 1 4 1 3 0 2 3 2 2 2 2 1 4 5 5 7 8 8 6 4 3 3 3 4 4 4 4 4 3 3 3 3 3 3 3 3 3 4 4 4 4 5 5 5
5 5 5 3 2 3 3 2 3 4 5 7 8 7 6 8 9 8 10 10 7 6 5 2 5 7 6 6 6 5 5 6 5 5 5 4 5 4 3 5 4 2 4 4 1 1 0 2 3 3 2 2 1 1 2 5 7 6 6 6 5 5 4 4 4 4 5 4 4 4 4 4 4 4 4 4 5 5 5 5 5 5 5 5 5
5 5 6 5 3 2 3 3 3 3 4 5 6 7 6 6 7 7 8 10 9 8 6 2 4 8 8 7 6 4 5 6 6 5 5 5 5 3 2 4 3 5 4 3 2 4 1 3 6 6 5 6 5 3 0 4 7 6 5 6 6 6 6 6 6 6 6 5 5 5 5 5 5 5 6 6 7 7 7 7 6 6 6 6 6
7 6 6 6 4 3 2 2 3 2 3 3 4 6 6 5 5 5 7 10 10 9 6 3 6 8 6 5 4 4 5 6 6 7 5 5 6 4 2 3 3 5 7 3 2 3 3 4 6 6 8 10 8 7 4 3 7 7 6 7 7 7 8 7 7 7 7 7 7 7 7 7 7 7 7 8 8 8 8 8 8 8 8 8 8
7 7 6 6 6 5 3 2 2 2 2 3 4 4 4 4 3 4 6 8 10 10 7 5 7 5 6 6 4 5 6 5 6 7 6 5 6 6 4 3 2 1 3 2 2 5 5 4 5 4 7 11 9 8 8 6 7 7 6 6 7 8 8 8 9 9 9 9 9 8 8 8 8 9 9 10 10 10 10 10 10 10 10 10 10
7 8 7 6 6 6 5 4 3 3 2 2 2 1 1 1 2 4 5 6 8 10 9 7 7 2 5 7 6 6 6 4 6 7 6 6 6 5 5 3 3 2 2 3 1 3 5 6 8 6 7 11 11 10 10 8 9 8 6 5 6 7 8 8 9 9 9 9 10 10 10 10 10 11 11 12 12 12 13 12 12 12 12 12 12
7 8 8 7 7 6 6 5 5 4 4 3 2 3 3 0 3 4 5 6 6 7 9 9 8 4 1 6 9 7 6 7 6 5 5 5 4 2 3 4 4 3 4 2 3 1 1 5 7 7 8 10 12 12 11 9 9 9 7 6 7 7 7 8 8 8 9 9 10 11 11 12 12 12 13 13 14 14 15 15 15 15 15 15 15
8 9 9 9 8 7 6 6 6 6 6 7 6 5 3 2 2 4 4 5 5 6 7 6 6 6 3 5 9 7 6 9 6 3 4 4 3 2 3 5 3 3 3 1 1 3 0 3 4 5 6 7 9 11 11 10 9 8 7 7 7 7 7 7 8 8 9 9 10 11 12 13 13 14 14 15 15 16 16 17 17 17 17 17 17
12 10 10 10 10 9 8 7 7 7 7 7 7 6 3 4 3 3 4 5 5 5 6 5 4 6 5 4 7 5 3 5 3 2 6 5 4 5 4 5 2 2 2 3 5 3 1 3 2 4 6 4 4 8 9 10 10 8 7 7 6 7 8 8 9 9 10 11 11 12 12 13 14 14 15 15 16 17 17 18 18 18 19 19 19
14 13 12 11 11 11 10 9 8 8 7 7 7 8 8 7 5 3 4 5 6 5 5 6 4 5 6 3 4 4 2 4 4 2 4 6 7 6 2 3 2 2 2 2 2 1 2 2 1 5 7 5 4 6 8 11 12 11 10 9 9 9 10 11 12 13 13 14 14 15 15 15 16 16 17 17 18 18 19 19 19 19 20 20 21
15 15 13 12 12 12 11 11 10 10 9 8 8 9 10 10 8 5 5 4 6 5 5 6 4 4 8 8 6 5 2 4 5 1 2 4 4 1 2 2 1 2 2 2 3 1 0 1 2 5 8 8 9 12 13 13 14 13 13 13 13 12 12 13 14 15 16 17 17 18 19 19 19 20 20 21 21 22 22 22 21 21 22 22 22
17 16 15 15 14 13 12 12 13 12 11 10 10 9 9 10 9 7 6 6 6 6 6 7 5 3 6 9 9 6 4 5 3 2 1 1 3 4 4 1 2 1 1 2 3 2 1 2 5 7 9 10 13 15 17 16 15 13 12 13 14 15 15 15 16 17 18 18 19 20 20 21 21 22 22 23 24 24 25 25 25 25 25 25 26
18 17 17 16 16 16 14 13 13 14 13 12 12 11 10 10 9 8 8 8 8 8 7 8 7 5 4 6 9 8 6 7 5 4 5 6 6 5 4 3 1 1 1 3 3 2 3 4 7 9 11 13 14 16 18 17 15 13 13 13 14 16 17 18 18 19 19 19 20 20 21 21 22 22 23 24 25 26 27 28 28 28 29 29 30
19 18 18 18 19 20 18 15 14 15 15 14 13 13 12 11 10 9 9 9 9 9 9 9 9 7 5 4 5 6 8 9 8 9 8 7 6 5 4 4 3 2 2 2 3 4 6 3 3 8 11 14 16 18 18 17 16 16 17 17 18 18 19 20 20 20 20 20 20 21 22 23 23 24 25 26 27 28 28 29 29 30 31 32 32
21 20 19 19 21 21 20 18 16 16 16 15 15 14 14 13 11 11 10 10 10 10 10 10 10 10 9 7 6 6 5 5 5 5 6 7 5 4 4 4 4 4 4 5 4 3 4 4 2 5 10 14 17 19 18 16 17 18 20 21 21 21 21 21 22 22 22 21 21 21 21 22 23 24 25 26 27 28 29 29 30 31 32 33 34
23 22 20 20 21 22 21 20 18 18 17 16 16 16 16 15 14 12 12 11 11 11 10 11 11 11 12 12 10 8 6 6 6 5 6 9 7 5 5 5 5 6 6 8 7 4 3 5 6 6 9 13 15 17 17 17 18 19 21 22 23 23 23 23 23 23 23 22 22 21 20 19 20 21 22 24 25 27 28 29 30 31 32 34 35
24 24 23 22 22 22 21 21 21 20 19 18 18 17 17 16 15 15 13 13 13 12 11 12 12 11 12 13 14 13 11 10 11 10 9 11 11 9 8 9 9 9 8 9 11 9 6 7 9 8 9 12 14 15 16 17 18 19 20 22 23 24 24 24 24 23 22 21 20 20 18 18 18 20 21 22 24 25 26 27 28 30 31 33 34
26 26 26 26 24 22 22 22 22 22 21 21 20 18 18 17 17 16 15 15 15 13 13 13 12 12 12 13 14 14 14 13 12 11 10 11 11 12 11 9 9 10 10 10 12 13 11 10 12 13 13 14 15 16 17 18 19 20 22 23 24 24 24 24 23 23 23 22 21 19 18 18 19 21 23 24 24 25 25 26 27 28 29 30 32
27 27 28 28 27 24 23 23 22 22 22 22 21 20 19 18 18 17 17 17 16 15 14 14 14 13 13 14 14 14 14 14 13 12 12 10 9 11 12 12 11 11 11 11 13 15 16 15 15 16 16 17 18 18 18 19 20 20 20 21 22 22 22 22 22 22 21 20 21 20 20 21 23 26 29 28 25 23 24 24 25 25 26 28 29
28 28 28 29 28 27 25 24 23 23 23 23 22 22 21 20 19 18 19 19 18 17 15 15 15 15 15 15 14 13 13 14 14 13 13 12 11 11 12 12 12 12 11 12 14 16 19 19 19 19 19 20 20 20 20 20 19 19 19 20 20 20 19 18 19 20 18 17 19 21 22 25 28 31 31 28 25 25 26 26 25 25 26 28 29
29 29 29 29 29 28 27 26 25 25 25 24 23 23 22 21 20 19 19 19 20 19 17 17 16 16 16 16 15 15 15 15 15 14 14 13 13 14 14 14 14 14 13 14 15 17 20 21 21 20 21 22 22 21 21 21 21 21 20 21 21 19 17 17 18 19 18 17 20 23 25 27 31 33 29 26 28 31 31 30 30 30 30 31 31
30 30 31 30 29 29 28 28 27 26 27 27 25 24 23 22 21 20 20 20 20 20 19 18 18 18 18 17 17 17 17 17 17 16 16 15 14 14 15 15 15 15 15 14 15 16 18 20 21 21 21 22 23 22 21 21 22 22 21 21 20 19 18 19 20 20 20 20 21 22 25 30 32 29 26 28 33 33 32 32 32 32 31 31 30
30 30 31 31 30 30 30 29 29 28 28 28 28 26 25 24 23 21 21 21 21 21 20 19 19 19 19 18 18 18 18 18 18 18 17 16 15 15 16 16 15 14 15 15 15 17 18 19 21 22 22 23 23 22 21 20 21 22 22 21 20 19 20 21 21 22 23 24 24 25 28 31 31 29 29 33 35 33 31 31 32 31 29 28 28
32 30 30 31 32 31 31 30 30 30 30 30 30 28 27 26 25 23 23 23 23 23 22 21 20 20 20 19 18 19 19 19 18 18 18 17 17 16 16 16 15 16 16 16 16 17 18 20 21 22 23 23 23 23 22 21 20 20 20 21 21 21 21 21 22 23 25 27 27 28 30 32 33 32 33 34 33 30 29 29 29 28 27 28 30
33 31 30 31 31 31 32 31 31 31 31 31 31 30 28 28 27 25 24 24 23 23 23 23 22 22 21 20 19 19 20 20 19 19 18 18 18 17 17 17 17 17 17 17 17 18 18 20 21 22 23 24 24 24 23 20 18 18 19 21 23 23 22 23 24 25 26 27 28 29 31 33 34 33 33 31 28 26 26 27 27 28 30 33 34
33 32 31 30 30 31 32 32 31 32 32 33 32 31 30 29 28 27 26 25 24 24 23 22 22 22 22 21 20 19 20 20 19 19 18 18 19 19 19 18 17 17 18 19 19 20 20 21 22 23 24 26 26 24 21 18 18 19 20 20 22 24 25 26 27 26 26 26 27 29 32 33 33 31 29 27 25 24 26 28 30 32 34 35 35
33 33 32 31 30 31 31 32 32 32 33 34 33 32 30 29 29 29 28 27 26 25 24 23 23 22 22 22 21 20 20 20 20 19 19 19 19 19 19 18 18 18 19 20 21 22 22 22 23 23 24 27 27 23 20 19 19 20 19 20 24 27 28 29 29 27 26 26 28 32 33 32 31 30 29 27 26 27 29 31 33 34 35 35 35
33 33 34 33 31 30 31 31 32 33 34 34 33 32 31 29 28 29 29 29 27 27 26 26 25 24 23 22 22 21 21 22 22 21 22 22 20 19 18 18 19 20 21 22 23 24 24 25 25 24 25 27 27 24 23 22 21 20 20 23 27 29 28 28 29 28 28 29 32 34 33 29 28 30 30 29 29 30 31 32 33 34 35 35 34
35 34 34 35 33 31 30 31 31 31 33 33 33 32 30 29 28 28 29 29 29 29 28 27 27 25 24 23 23 22 22 23 23 24 25 24 22 20 18 19 20 21 22 23 24 25 26 26 27 27 27 28 28 27 27 26 24 24 26 29 29 27 26 27 29 30 31 31 31 32 31 29 29 30 31 29 29 29 30 31 33 34 33 31 30
36 35 34 35 35 33 31 30 31 30 30 32 32 32 30 28 27 27 28 29 30 30 29 29 28 27 26 24 24 23 23 22 22 23 24 24 22 20 20 21 21 22 23 24 25 26 26 27 29 29 28 28 29 28 27 27 27 28 29 28 25 24 25 27 30 32 31 28 26 28 30 29 28 28 29 28 28 29 32 33 33 31 29 28 29
37 36 35 35 36 36 33 31 31 31 29 30 31 31 30 28 27 27 27 28 29 30 30 29 28 28 27 26 25 24 23 23 23 23 23 23 22 22 22 23 23 24 25 25 25 26 27 28 29 29 27 25 25 25 23 23 25 25 25 23 22 23 25 27 29 30 28 22 21 25 30 29 25 24 26 29 31 33 35 34 31 28 27 28 29
37 37 36 35 35 36 36 33 32 31 30 29 29 30 30 29 28 28 28 28 29 29 28 27 27 27 26 26 25 24 24 24 24 25 25 25 25 25 25 25 26 26 26 26 26 26 26 26 27 26 23 21 20 19 18 19 20 20 19 19 20 23 25 26 27 27 24 20 19 23 27 26 23 23 27 31 34 36 35 31 28 28 29 29 30
36 37 37 36 35 36 37 36 34 31 30 29 29 29 29 28 27 27 27 28 29 29 28 26 26 27 26 26 26 26 25 24 24 24 25 26 26 27 28 28 28 28 28 27 27 27 27 26 26 26 24 20 18 16 16 17 17 17 17 18 20 21 23 25 26 25 22 21 21 21 23 25 26 29 32 34 36 36 32 29 29 30 31 31 32
34 36 37 37 36 35 36 37 36 34 31 30 29 29 29 28 26 26 26 27 29 30 30 29 28 27 28 28 28 28 28 27 26 26 26 26 27 28 29 29 29 29 29 28 27 27 28 28 28 27 24 19 17 17 18 17 17 16 17 19 20 20 21 23 25 25 24 23 21 20 21 26 30 33 35 36 35 33 30 29 30 32 32 32 32
34 33 35 36 35 35 35 35 36 36 34 32 31 31 30 29 28 27 27 27 28 30 31 32 32 31 31 31 31 31 31 30 29 28 28 28 29 29 30 30 30 30 30 29 28 28 28 28 26 24 22 20 19 20 20 18 17 16 17 19 18 18 18 20 22 25 25 21 19 20 23 27 30 32 35 37 36 32 28 29 32 33 32 32 33
35 31 31 33 33 33 34 33 34 35 35 35 34 34 33 32 31 30 29 29 29 30 30 32 34 34 35 35 34 34 34 33 32 31 31 31 31 31 30 30 31 32 32 30 28 27 25 25 24 23 23 22 21 22 21 19 17 16 17 19 17 16 17 18 20 21 21 19 20 23 25 27 29 30 32 34 34 32 30 31 33 32 32 33 34
Wind_Direction
149 146 137 133 130 135 136 134 140 135 121 117 125 130 124 128 131 133 135 138 138 133 125 129 129 122 126 121 109 110 111 113 120 125 128 127 127 127 125 121 117 113 108 107 105 104 104 107 113 117 121 124 124 120 115 111 107 105 104 102 99 93 84 69 58 48 41 34 30 28 21 19 18 20 24 21 14 7 3 1 358 358 358 357 359
149 141 126 126 129 129 129 137 139 127 115 111 124 120 110 123 128 129 134 133 139 144 138 135 130 120 120 118 105 104 112 116 122 128 130 125 123 125 126 123 118 116 112 111 107 102 99 98 103 108 111 113 115 118 118 117 113 111 110 107 102 94 84 68 55 47 41 38 33 29 25 20 18 16 12 6 3 359 357 355 353 354 356 356 360
141 134 119 115 123 125 125 127 115 104 107 102 109 109 102 115 123 125 133 128 128 138 136 129 119 114 118 121 112 102 117 120 113 123 127 121 122 123 123 123 121 121 119 119 114 107 100 91 94 97 96 96 97 100 103 107 108 107 105 102 99 90 79 68 59 53 47 43 34 25 20 13 9 5 359 357 356 355 354 352 352 354 358 358 357
124 117 108 112 117 120 128 128 111 104 106 99 105 107 104 115 120 121 127 126 122 121 120 118 112 109 108 107 104 106 122 115 106 125 127 114 124 125 119 120 118 118 121 122 119 115 110 102 99 98 95 93 92 92 91 91 91 91 90 83 81 79 71 63 55 48 42 31 20 11 6 2 359 356 353 354 354 353 352 352 354 356 357 355 352
129 116 111 116 113 114 125 130 123 119 117 110 110 110 114 122 122 120 122 117 119 120 112 111 111 107 102 93 99 114 128 128 127 132 129 115 119 118 116 119 116 114 115 116 115 114 112 107 103 99 98 99 96 96 97 97 93 85 85 78 66 60 52 49 36 22 19 7 1 358 356 355 353 350 349 352 355 354 356 356 355 356 353 351 352
131 123 123 118 110 105 113 117 114 119 129 126 115 105 104 111 113 117 119 114 112 116 112 109 109 109 109 98 101 117 123 131 140 125 125 130 121 113 109 112 111 110 109 108 111 113 108 102 98 93 87 83 72 73 79 80 87 85 89 91 60 30 10 15 11 360 358 352 350 349 347 348 344 345 349 353 356 354 357 358 355 356 356 356 2
124 125 119 109 109 106 106 104 95 101 113 110 104 99 95 100 108 108 109 110 102 103 112 111 111 116 119 124 130 111 109 133 148 138 134 137 123 117 116 118 113 106 105 102 101 103 103 98 89 84 73 65 47 35 34 14 5 1 346 339 343 349 344 346 346 336 333 333 332 333 335 337 335 341 349 352 353 353 355 357 357 1 4 6 11
126 123 113 105 108 102 103 101 92 98 102 97 97 101 107 115 123 126 120 114 102 99 115 114 115 127 123 135 145 111 112 137 133 145 159 151 140 136 130 135 128 109 100 100 96 84 85 87 74 70 63 56 50 35 34 29 9 355 345 342 340 342 336 329 327 320 320 322 320 320 322 324 327 334 343 348 348 351 354 356 1 8 11 13 16
131 128 122 112 108 100 103 97 92 103 107 101 96 99 115 122 129 138 131 116 113 110 110 111 122 137 119 130 132 118 147 136 114 148 167 147 149 165 161 122 121 121 106 97 92 75 70 76 66 66 66 56 54 44 39 35 18 8 358 349 349 350 345 326 318 313 312 317 315 316 315 313 320 332 339 344 346 349 354 359 6 13 15 17 19
137 142 127 114 113 105 101 94 96 106 102 95 94 100 116 120 129 137 120 104 121 127 123 124 132 134 121 134 135 127 155 139 129 162 155 144 158 172 190 82 93 107 103 83 60 60 64 66 63 70 70 60 57 51 44 39 19 15 3 349 346 338 334 317 304 298 298 303 303 305 311 313 322 334 338 341 345 351 357 2 9 13 13 13 15
145 141 126 124 117 105 104 101 103 107 96 91 97 105 116 119 127 134 121 108 118 126 129 132 129 132 134 147 148 135 137 138 144 150 131 142 158 159 169 144 108 96 84 72 349 38 94 58 49 82 92 66 60 56 39 36 27 23 10 337 324 312 311 311 296 283 282 287 293 296 304 310 320 329 333 341 347 352 359 3 7 8 4 2 2
151 139 129 125 108 98 109 107 105 107 97 95 104 108 113 119 122 125 117 108 116 124 130 135 130 136 141 138 138 133 134 139 134 127 129 137 146 150 156 154 151 162 161 186 289 346 57 72 21 53 102 82 60 52 33 31 34 27 14 339 317 303 302 309 307 300 294 297 302 300 299 305 317 326 329 337 346 351 357 356 357 356 350 348 349
148 142 132 124 110 102 109 108 106 107 98 98 106 107 108 115 118 120 116 110 122 132 132 133 130 132 134 130 134 131 137 137 124 125 136 134 133 138 144 154 141 153 165 168 182 245 322 8 20 37 65 67 63 39 21 22 24 10 357 341 318 302 294 297 305 305 305 306 305 301 297 301 309 313 316 324 334 343 346 348 348 344 339 337 338
147 144 137 130 120 110 114 111 103 101 98 99 101 101 109 115 115 123 124 118 125 139 133 117 117 138 138 136 137 128 128 128 122 126 135 138 130 123 132 144 141 150 137 53 119 160 242 325 12 33 346 24 54 20 13 21 15 5 354 343 316 295 285 284 294 297 300 305 305 298 291 293 293 290 288 290 309 327 334 339 337 331 329 328 328
157 148 152 154 114 103 112 111 98 96 97 99 99 101 109 113 109 116 120 112 109 131 132 115 114 144 142 142 146 135 124 112 123 130 136 138 136 135 132 136 160 200 63 7 3 127 190 287 336 223 288 6 24 348 7 36 17 8 1 351 331 306 294 294 302 303 304 305 307 299 284 281 276 272 265 264 292 312 320 326 325 321 320 317 317
171 158 160 178 137 114 118 112 98 91 96 100 101 102 108 112 111 111 112 108 105 111 112 117 132 140 131 137 144 133 115 111 118 127 132 130 137 145 127 145 178 115 101 158 288 173 186 264 295 277 301 10 324 314 350 7 359 0 0 358 355 338 325 321 322 320 317 312 308 302 287 282 272 263 261 268 288 298 304 309 308 308 310 310 310
179 173 162 177 169 132 132 112 88 88 94 97 98 99 105 111 114 116 115 119 122 118 104 100 146 146 133 122 119 111 109 122 131 133 137 121 134 153 129 160 197 43 116 181 216 77 224 283 323 339 6 19 345 301 303 312 331 354 357 357 4 360 355 346 337 332 324 316 311 305 297 291 283 277 276 279 287 290 293 295 296 299 300 303 304
188 182 171 176 187 162 148 122 90 92 93 89 93 96 101 111 120 125 126 129 128 126 124 109 119 119 108 98 95 89 98 118 123 119 129 123 132 155 117 163 231 1 61 138 59 58 43 323 338 356 17 14 9 20 290 286 330 1 360 356 2 358 358 353 344 340 332 325 320 315 310 304 295 289 286 285 286 287 288 288 289 291 292 296 297
199 192 185 181 181 192 178 131 118 114 96 94 98 95 101 115 121 119 126 132 131 130 131 114 101 101 98 96 97 102 90 92 106 95 93 115 128 148 123 151 232 343 32 64 335 8 34 352 338 339 350 357 2 7 5 327 343 0 355 350 354 350 348 347 341 337 333 330 327 322 317 312 304 297 292 288 287 287 286 286 286 286 287 289 290
207 203 195 192 185 184 190 167 144 136 115 113 107 89 96 105 103 108 119 132 134 139 145 113 99 122 151 136 103 105 96 82 99 93 86 100 100 116 126 106 162 282 27 77 297 339 360 355 353 346 337 346 356 8 9 355 352 4 359 342 341 343 341 338 337 333 330 327 323 321 316 310 304 299 295 291 289 288 287 286 285 286 286 287 288
210 212 203 199 197 188 188 191 181 170 145 102 86 58 42 96 122 127 127 137 138 146 157 137 114 154 181 149 121 108 118 105 87 90 109 111 92 107 119 107 144 160 106 126 127 3 347 341 348 339 330 342 352 4 5 357 354 4 11 353 341 341 336 333 332 328 325 322 317 314 310 307 303 299 295 292 291 290 288 287 286 286 286 287 288
215 215 214 207 207 203 197 195 197 194 168 147 184 238 261 166 144 147 136 138 135 136 150 146 134 128 106 128 121 104 114 123 100 94 117 104 99 131 103 107 137 105 96 176 198 146 330 338 344 326 320 339 348 352 357 358 354 355 3 2 350 344 337 331 327 322 318 313 310 308 305 304 302 300 298 296 294 292 291 290 288 288 287 287 288
233 223 220 217 215 214 211 203 205 205 180 174 190 210 252 303 148 152 140 137 135 129 136 146 147 138 99 88 104 97 98 114 112 100 115 113 116 109 75 108 125 62 79 242 346 104 156 325 335 305 307 332 334 329 336 346 348 347 351 352 345 339 333 326 317 312 307 304 302 301 300 300 300 299 299 297 296 295 293 292 291 290 289 288 288
235 232 227 223 222 219 217 213 212 214 198 186 186 178 200 268 260 175 155 146 141 133 130 133 129 124 119 76 93 111 97 104 121 68 87 110 101 66 73 113 115 51 65 10 19 61 307 313 302 269 288 304 284 290 310 325 331 332 333 332 328 324 321 316 310 304 301 299 298 296 296 297 297 297 297 296 296 294 293 293 291 291 290 289 288
228 232 233 230 228 222 217 217 219 218 212 200 192 184 185 209 234 206 177 162 148 147 134 134 134 126 138 129 100 118 81 93 136 153 69 65 56 46 80 129 84 57 87 14 9 145 252 292 217 245 276 291 275 288 309 317 319 323 323 323 321 316 311 308 307 305 304 303 301 301 300 300 299 299 298 297 296 294 293 292 291 291 290 289 288
232 232 232 230 233 230 217 214 220 221 218 213 206 202 193 196 215 208 187 179 161 162 148 142 172 163 152 166 159 153 179 127 124 174 341 33 46 12 237 170 80 36 66 337 328 353 265 248 251 261 275 298 318 322 324 322 319 318 318 319 321 322 318 313 310 307 307 307 307 308 308 308 307 305 304 302 299 298 295 293 292 291 290 289 288
240 236 230 225 230 237 226 214 219 221 219 219 216 214 206 203 216 212 196 197 179 176 174 158 179 199 160 166 167 153 160 158 127 4 330 263 222 240 281 307 139 129 143 239 278 330 322 265 287 286 287 304 315 316 319 319 315 312 313 315 319 323 324 322 319 316 313 312 313 314 313 313 311 309 307 305 303 301 298 296 294 292 291 290 289
242 239 231 222 221 233 234 219 219 223 221 221 220 217 212 210 214 211 207 212 197 187 192 177 174 197 199 182 173 162 162 174 190 214 212 233 248 255 300 321 288 194 231 210 202 208 229 265 291 286 289 305 308 306 312 316 318 319 320 321 321 321 321 320 320 319 317 316 315 314 314 312 311 309 306 304 302 301 299 297 295 293 292 290 289
235 237 232 222 216 226 235 228 221 224 225 223 222 222 219 216 214 210 208 218 214 201 201 194 180 185 214 241 216 189 185 189 198 208 219 239 260 277 291 295 297 297 282 252 239 226 209 207 304 293 292 302 303 306 314 319 322 321 320 322 323 322 321 319 318 319 318 316 314 311 310 308 307 305 304 303 301 300 298 296 294 293 291 290 289
226 228 230 224 218 222 230 230 224 224 226 224 222 223 223 220 217 215 211 216 221 213 207 205 194 186 191 216 258 263 231 208 206 234 273 275 261 271 287 286 292 296 296 291 290 266 221 203 232 289 298 301 302 310 315 315 315 313 313 317 319 320 320 316 314 315 314 313 312 309 307 305 305 304 302 301 300 299 298 296 295 293 291 290 288
224 220 225 226 222 221 224 227 225 223 225 226 224 223 224 222 220 219 218 218 222 221 216 214 211 205 194 190 207 235 239 232 218 217 265 278 272 274 285 286 284 286 292 290 287 281 265 260 251 255 279 289 296 304 304 301 301 302 304 308 311 314 314 314 313 312 310 310 309 310 311 310 308 307 305 303 302 301 300 298 297 295 294 293 291
224 217 219 223 223 223 222 223 224 223 224 226 226 225 224 223 222 222 222 223 224 224 223 221 219 220 218 206 203 213 221 225 224 213 220 249 268 280 284 282 280 281 282 284 287 290 291 293 291 290 291 294 298 299 297 299 302 303 305 308 311 313 314 316 317 314 312 310 309 311 312 312 312 312 310 307 304 303 303 302 300 298 298 297 296
224 217 216 220 223 225 223 221 224 225 225 227 228 228 226 225 225 224 224 226 228 225 223 225 223 223 230 229 223 226 232 236 241 241 237 245 264 282 291 289 284 286 285 283 291 299 305 310 312 316 319 315 314 315 312 312 312 311 310 310 312 313 315 317 317 317 315 314 315 316 315 316 320 322 321 318 313 309 309 309 308 306 306 306 305
222 218 217 219 221 224 223 220 222 224 226 229 228 229 229 226 227 227 224 227 232 230 226 227 229 228 234 238 236 235 241 245 246 248 250 249 255 273 288 296 298 298 294 289 291 296 304 312 315 318 322 321 319 321 318 313 311 310 308 309 314 317 318 318 320 320 317 316 318 320 320 323 327 329 329 327 326 323 321 321 319 317 316 316 315
217 217 218 219 220 223 224 221 220 220 224 229 229 229 231 229 227 229 229 230 234 235 231 230 232 234 236 241 243 241 242 246 247 247 249 245 238 243 255 268 281 288 289 289 289 291 296 304 311 315 319 319 318 318 318 317 319 320 319 323 328 328 326 326 327 327 326 325 325 324 324 324 326 328 327 328 331 332 329 327 324 322 321 320 319
213 215 217 220 221 223 224 223 221 218 219 227 231 230 232 232 229 230 233 235 237 239 237 233 233 235 236 240 247 249 247 247 248 249 250 249 245 242 241 243 250 257 262 267 274 281 288 297 307 313 316 317 318 319 323 326 329 329 328 330 332 331 330 331 330 331 335 333 326 323 320 319 322 325 326 328 333 333 331 329 327 325 324 323 322
211 213 215 217 220 223 223 223 222 220 219 224 230 231 232 235 234 232 233 237 240 243 243 240 238 238 240 244 248 249 248 246 246 249 252 256 256 253 251 252 254 259 264 268 275 282 288 296 306 312 314 315 318 321 326 328 329 328 327 327 329 329 330 331 329 328 330 327 321 316 313 313 318 322 326 330 332 332 331 330 329 328 328 328 327
208 211 214 216 218 222 224 223 222 223 222 223 228 231 231 233 236 236 235 237 241 244 246 246 245 243 245 249 249 247 247 247 245 246 249 254 256 255 255 259 263 267 269 275 282 288 293 298 305 309 312 315 318 320 323 323 321 321 323 324 327 329 328 326 324 322 320 319 316 313 311 315 320 325 328 329 330 331 332 332 333 334 335 335 335
207 208 214 217 218 221 225 225 223 224 225 225 227 231 230 230 234 238 239 238 241 244 247 249 250 250 250 251 250 247 247 250 249 246 246 249 252 254 256 259 264 268 270 275 281 285 291 296 301 304 308 312 312 312 316 318 316 320 323 322 321 323 323 321 318 316 313 312 312 314 317 322 325 326 326 327 330 334 336 339 340 340 340 341 340
207 205 211 219 220 220 224 227 226 225 226 226 227 230 231 228 230 237 241 242 243 245 247 248 249 250 251 250 251 251 249 250 250 249 247 246 248 253 257 259 261 267 274 279 281 283 285 288 293 297 301 304 306 308 315 319 318 319 319 316 313 315 316 314 312 311 310 311 312 316 320 324 324 323 325 328 334 338 339 341 344 344 344 343 340
208 205 207 216 220 219 221 226 227 225 226 228 229 231 232 230 228 233 240 243 244 245 247 247 247 248 246 242 242 248 252 253 252 252 252 250 247 249 254 259 264 268 273 277 281 283 283 284 288 293 297 301 305 308 312 312 309 309 311 309 305 307 310 308 306 308 310 311 311 314 319 323 322 322 327 333 338 341 340 342 345 344 343 340 336
209 206 205 211 218 220 220 223 224 223 225 230 233 234 236 235 232 232 237 243 245 244 245 246 247 247 245 241 237 239 247 256 259 259 259 258 254 251 253 258 265 269 274 278 282 284 284 285 288 291 294 298 303 304 302 299 299 302 303 297 296 303 309 307 307 312 313 312 312 314 318 323 323 325 333 339 342 344 344 344 343 341 338 333 328
212 208 205 207 213 219 220 222 225 225 226 232 237 237 237 238 237 235 237 241 245 245 243 243 246 247 245 243 241 239 239 245 252 257 259 261 262 259 256 259 264 270 275 278 282 284 284 284 286 288 288 293 298 298 294 293 294 293 290 290 296 304 307 305 306 311 313 314 315 314 317 326 330 331 337 342 344 345 343 340 337 334 330 326 322
215 210 207 206 209 214 218 220 224 229 231 234 238 240 239 239 239 238 237 238 241 244 244 243 245 248 247 244 242 241 240 240 243 247 253 260 264 262 259 261 265 270 274 278 281 283 283 282 283 283 284 287 289 291 293 293 291 289 290 294 300 303 302 301 304 307 312 317 317 315 320 332 336 334 337 343 343 339 334 331 329 327 325 323 323
215 213 210 209 208 210 215 219 222 227 233 235 237 239 240 240 239 238 238 238 238 241 244 245 245 247 250 249 244 241 241 242 245 249 254 260 264 263 261 263 266 270 275 279 282 282 283 282 281 283 286 286 285 288 294 294 292 293 296 299 301 300 299 301 304 307 313 320 321 319 323 331 334 333 335 338 335 329 327 327 329 330 331 331 328
214 214 212 212 211 211 213 218 222 225 230 236 238 238 239 240 240 240 239 239 238 239 242 245 246 247 250 253 252 247 244 242 244 249 256 262 266 267 267 269 271 274 277 280 282 283 283 282 282 286 290 289 287 290 293 292 292 296 298 300 301 298 299 304 306 310 317 325 327 322 321 326 332 331 328 327 325 325 328 331 335 338 338 337 335
213 215 214 213 214 214 213 216 222 226 228 233 238 240 240 240 240 241 240 238 237 237 238 241 245 248 250 252 253 253 251 249 247 248 253 260 265 270 272 274 276 278 279 279 281 283 284 284 285 289 293 294 292 292 290 289 291 294 296 297 298 299 303 307 308 313 322 329 326 318 316 323 329 323 318 320 323 327 332 337 340 341 341 342 343
211 215 216 215 215 216 216 216 219 224 226 228 234 241 245 244 241 240 240 238 236 234 233 236 240 244 248 250 252 254 255 255 255 255 255 257 261 266 271 276 278 280 281 282 284 286 288 290 291 293 298 300 297 290 288 289 291 291 291 292 296 303 308 308 309 316 323 325 323 320 318 321 322 317 316 321 325 330 337 341 342 343 344 344 343
208 213 216 217 216 218 219 219 219 221 224 226 230 236 243 246 244 242 241 240 238 235 232 233 234 236 240 245 249 253 257 258 260 261 260 260 261 264 268 272 275 277 280 283 285 287 289 290 291 293 296 295 290 286 286 289 291 289 285 287 297 305 304 303 308 315 319 322 324 322 317 316 317 319 320 323 327 333 339 341 342 345 344 341 343
206 210 215 218 219 220 221 223 223 223 225 227 229 233 238 242 244 245 244 243 242 239 237 236 236 236 238 242 246 250 255 259 262 263 264 263 263 265 267 268 268 269 273 276 277 279 283 284 285 285 285 281 280 283 284 285 287 285 282 288 298 300 296 299 306 310 315 321 319 314 311 312 316 321 323 325 328 333 339 341 343 346 343 342 346
207 209 214 218 220 221 222 223 226 228 229 229 232 235 237 239 242 245 247 247 247 247 245 243 242 243 244 247 250 252 255 259 261 264 266 266 267 268 268 267 267 269 272 273 274 275 276 276 276 276 275 274 276 278 278 277 278 279 283 291 295 291 291 298 301 304 309 312 308 307 310 312 316 322 325 327 328 332 338 341 342 344 346 346 348